| time (UTC) | temp F | wind direction | speed MPH | gust MPH | rain 1hr in | rain 24hr in | rain mn in | humidity % | barometer mb |
| 20260503021836 | 52 | 0 | 0.0 | 3.0 | 0.00 | 0.00 | 0.00 | 48 | 1010.6 |
| 20260503020350 | 52 | 0 | 0.0 | 3.0 | 0.00 | 0.00 | 0.00 | 46 | 1011.0 |
| 20260503014926 | 52 | 144 | 1.0 | 3.0 | 0.00 | 0.00 | 0.00 | 44 | 1010.6 |
| 20260503013520 | 52 | 144 | 1.0 | 3.0 | 0.00 | 0.00 | 0.00 | 46 | 1010.6 |
| 20260503013406 | 52 | 144 | 1.0 | 3.0 | 0.00 | 0.00 | 0.00 | 46 | 1010.6 |
| 20260503011856 | 52 | 144 | 1.0 | 2.0 | 0.00 | 0.00 | 0.00 | 48 | 1010.4 |
| 20260503010431 | 53 | 144 | 0.0 | 2.0 | 0.00 | 0.00 | 0.00 | 47 | 1010.4 |
| 20260503005006 | 52 | 144 | 1.0 | 3.0 | 0.00 | 0.00 | 0.00 | 49 | 1010.3 |
| 20260503004828 | 52 | 144 | 1.0 | 3.0 | 0.00 | 0.00 | 0.00 | 49 | 1010.3 |
| 20260503003351 | 52 | 0 | 0.0 | 0.0 | 0.00 | 0.00 | 0.00 | 59 | 1010.1 |
| 20260503001917 | 53 | 0 | 0.0 | 0.0 | 0.00 | 0.00 | 0.00 | 56 | 1010.1 |
| 20260503000422 | 55 | 0 | 0.0 | 0.0 | 0.00 | 0.00 | 0.00 | 52 | 1010.1 |
| 20260502235011 | 56 | 0 | 0.0 | 1.0 | 0.00 | 0.00 | 0.00 | 47 | 1010.1 |
| 20260502234858 | 56 | 0 | 0.0 | 1.0 | 0.00 | 0.00 | 0.00 | 47 | 1010.1 |
| 20260502233353 | 56 | 0 | 0.0 | 1.0 | 0.00 | 0.00 | 0.00 | 47 | 1009.9 |
| 20260502232014 | 57 | 0 | 0.0 | 2.0 | 0.00 | 0.00 | 0.00 | 45 | 1009.8 |
| 20260502231828 | 57 | 0 | 0.0 | 2.0 | 0.00 | 0.00 | 0.00 | 45 | 1009.8 |
| 20260502230511 | 58 | 144 | 0.0 | 2.0 | 0.00 | 0.00 | 0.00 | 43 | 1009.7 |
| 20260502230357 | 58 | 144 | 0.0 | 2.0 | 0.00 | 0.00 | 0.00 | 43 | 1009.7 |
| 20260502225014 | 58 | 144 | 0.0 | 4.0 | 0.00 | 0.00 | 0.00 | 41 | 1009.5 |
| 20260502224852 | 58 | 144 | 0.0 | 4.0 | 0.00 | 0.00 | 0.00 | 41 | 1009.5 |
| 20260502223457 | 58 | 144 | 1.0 | 3.0 | 0.00 | 0.00 | 0.00 | 43 | 1009.6 |
| 20260502223354 | 58 | 144 | 1.0 | 3.0 | 0.00 | 0.00 | 0.00 | 43 | 1009.6 |
| 20260502222002 | 59 | 144 | 1.0 | 3.0 | 0.00 | 0.00 | 0.00 | 45 | 1009.7 |
| 20260502221856 | 59 | 144 | 1.0 | 3.0 | 0.00 | 0.00 | 0.00 | 45 | 1009.7 |
| 20260502220533 | 59 | 144 | 1.0 | 2.0 | 0.00 | 0.00 | 0.00 | 47 | 1009.8 |
| 20260502220338 | 59 | 144 | 1.0 | 2.0 | 0.00 | 0.00 | 0.00 | 47 | 1009.8 |
| 20260502214951 | 59 | 144 | 1.0 | 4.0 | 0.00 | 0.00 | 0.00 | 47 | 1009.6 |
| 20260502214832 | 59 | 144 | 1.0 | 4.0 | 0.00 | 0.00 | 0.00 | 47 | 1009.6 |
| 20260502213350 | 58 | 144 | 1.0 | 4.0 | 0.00 | 0.00 | 0.00 | 48 | 1009.6 |
| 20260502211944 | 58 | 144 | 1.0 | 5.0 | 0.00 | 0.00 | 0.00 | 50 | 1009.4 |
| 20260502210422 | 59 | 144 | 2.0 | 7.0 | 0.00 | 0.00 | 0.00 | 49 | 1009.3 |
| 20260502204942 | 60 | 144 | 1.0 | 6.0 | 0.00 | 0.00 | 0.00 | 45 | 1009.4 |
| 20260502204836 | 60 | 144 | 1.0 | 6.0 | 0.00 | 0.00 | 0.00 | 45 | 1009.4 |
| 20260502203531 | 60 | 144 | 2.0 | 6.0 | 0.00 | 0.00 | 0.00 | 46 | 1009.3 |
| 20260502203336 | 60 | 144 | 2.0 | 6.0 | 0.00 | 0.00 | 0.00 | 46 | 1009.3 |
| 20260502201929 | 59 | 144 | 1.0 | 4.0 | 0.00 | 0.00 | 0.00 | 49 | 1009.6 |
| 20260502200413 | 58 | 144 | 2.0 | 5.0 | 0.00 | 0.00 | 0.00 | 51 | 1009.9 |
| 20260502195012 | 58 | 144 | 1.0 | 4.0 | 0.00 | 0.00 | 0.00 | 55 | 1010.1 |
| 20260502194858 | 58 | 144 | 1.0 | 4.0 | 0.00 | 0.00 | 0.00 | 55 | 1010.1 |
| 20260502193444 | 58 | 144 | 2.0 | 4.0 | 0.00 | 0.00 | 0.00 | 52 | 1010.3 |
| 20260502193324 | 58 | 144 | 2.0 | 4.0 | 0.00 | 0.00 | 0.00 | 52 | 1010.3 |
| 20260502191850 | 58 | 144 | 2.0 | 3.0 | 0.00 | 0.00 | 0.00 | 55 | 1010.6 |
| 20260502190514 | 57 | 144 | 1.0 | 3.0 | 0.00 | 0.00 | 0.00 | 56 | 1010.8 |
| 20260502190346 | 57 | 144 | 1.0 | 3.0 | 0.00 | 0.00 | 0.00 | 56 | 1010.8 |
| 20260502184931 | 57 | 144 | 1.0 | 5.0 | 0.00 | 0.00 | 0.00 | 59 | 1010.8 |
| 20260502183510 | 57 | 144 | 3.0 | 5.0 | 0.00 | 0.00 | 0.00 | 59 | 1010.9 |
| 20260502183336 | 57 | 144 | 3.0 | 5.0 | 0.00 | 0.00 | 0.00 | 59 | 1010.9 |
| 20260502181928 | 57 | 144 | 1.0 | 5.0 | 0.00 | 0.00 | 0.00 | 59 | 1011.0 |
| 20260502180354 | 56 | 144 | 1.0 | 3.0 | 0.00 | 0.00 | 0.00 | 62 | 1011.0 |
| 20260502170445 | 56 | 144 | 2.0 | 5.0 | 0.00 | 0.00 | 0.00 | 65 | 1011.3 |
| 20260502163439 | 56 | 144 | 2.0 | 4.0 | 0.00 | 0.00 | 0.00 | 69 | 1011.5 |
| 20260502161956 | 55 | 144 | 0.0 | 3.0 | 0.00 | 0.00 | 0.00 | 69 | 1011.4 |
| 20260502161857 | 55 | 144 | 0.0 | 3.0 | 0.00 | 0.00 | 0.00 | 69 | 1011.4 |
| 20260502160421 | 55 | 144 | 1.0 | 5.0 | 0.00 | 0.00 | 0.00 | 68 | 1011.6 |
| 20260502152023 | 54 | 144 | 0.0 | 3.0 | 0.00 | 0.00 | 0.00 | 71 | 1011.7 |
| 20260502151845 | 54 | 144 | 0.0 | 3.0 | 0.00 | 0.00 | 0.00 | 71 | 1011.7 |
| 20260502150511 | 53 | 144 | 0.0 | 3.0 | 0.00 | 0.00 | 0.00 | 72 | 1011.9 |
| 20260502130509 | 52 | 144 | 0.0 | 2.0 | 0.00 | 0.00 | 0.00 | 77 | 1012.0 |
| 20260502130328 | 52 | 144 | 0.0 | 2.0 | 0.00 | 0.00 | 0.00 | 77 | 1012.0 |
| 20260502123520 | 50 | 144 | 0.0 | 4.0 | 0.00 | 0.00 | 0.00 | 81 | 1011.9 |
| 20260502123333 | 50 | 144 | 0.0 | 4.0 | 0.00 | 0.00 | 0.00 | 81 | 1011.9 |
| 20260502121935 | 50 | 144 | 0.0 | 2.0 | 0.00 | 0.00 | 0.00 | 82 | 1011.8 |
| 20260502120429 | 50 | 144 | 0.0 | 1.0 | 0.00 | 0.00 | 0.00 | 83 | 1011.9 |
| 20260502120327 | 50 | 144 | 0.0 | 1.0 | 0.00 | 0.00 | 0.00 | 83 | 1011.9 |
| 20260502114914 | 49 | 144 | 0.0 | 1.0 | 0.00 | 0.00 | 0.00 | 83 | 1012.1 |
| 20260502113402 | 49 | 144 | 1.0 | 2.0 | 0.00 | 0.00 | 0.00 | 84 | 1012.0 |
| 20260502111848 | 49 | 0 | 0.0 | 2.0 | 0.00 | 0.00 | 0.00 | 84 | 1011.7 |
| 20260502110513 | 49 | 144 | 1.0 | 3.0 | 0.00 | 0.00 | 0.00 | 84 | 1011.1 |
| 20260502110355 | 49 | 144 | 1.0 | 3.0 | 0.00 | 0.00 | 0.00 | 84 | 1011.1 |
| 20260502104932 | 49 | 144 | 1.0 | 1.0 | 0.00 | 0.00 | 0.00 | 84 | 1011.3 |
| 20260502103435 | 49 | 0 | 0.0 | 1.0 | 0.00 | 0.00 | 0.00 | 84 | 1011.6 |
| 20260502101944 | 49 | 0 | 0.0 | 2.0 | 0.00 | 0.00 | 0.00 | 84 | 1011.5 |
| 20260502100458 | 49 | 0 | 0.0 | 0.0 | 0.00 | 0.00 | 0.00 | 83 | 1011.7 |
| 20260502100325 | 49 | 0 | 0.0 | 0.0 | 0.00 | 0.00 | 0.00 | 83 | 1011.7 |
| 20260502090350 | 49 | 0 | 0.0 | 1.0 | 0.00 | 0.00 | 0.00 | 81 | 1011.3 |
| 20260502070520 | 49 | 0 | 0.0 | 2.0 | 0.00 | 0.00 | 0.00 | 79 | 1011.3 |
| 20260502070414 | 49 | 0 | 0.0 | 2.0 | 0.00 | 0.00 | 0.00 | 79 | 1011.3 |
| 20260502064955 | 48 | 0 | 0.0 | 2.0 | 0.00 | 0.00 | 0.00 | 78 | 1011.4 |
| 20260502064856 | 48 | 0 | 0.0 | 2.0 | 0.00 | 0.00 | 0.00 | 78 | 1011.4 |
| 20260502063433 | 48 | 144 | 0.0 | 1.0 | 0.00 | 0.00 | 0.00 | 77 | 1011.6 |
| 20260502061933 | 48 | 144 | 0.0 | 1.0 | 0.00 | 0.00 | 0.00 | 77 | 1011.6 |
| 20260502061823 | 48 | 144 | 0.0 | 1.0 | 0.00 | 0.00 | 0.00 | 77 | 1011.6 |
| 20260502060424 | 49 | 144 | 0.0 | 1.0 | 0.00 | 0.00 | 0.00 | 76 | 1011.7 |
| 20260502055018 | 50 | 0 | 0.0 | 1.0 | 0.00 | 0.00 | 0.00 | 74 | 1011.6 |
| 20260502054915 | 50 | 0 | 0.0 | 1.0 | 0.00 | 0.00 | 0.00 | 74 | 1011.6 |
| 20260502053410 | 50 | 0 | 0.0 | 1.0 | 0.00 | 0.00 | 0.00 | 74 | 1011.6 |
| 20260502051921 | 50 | 144 | 0.0 | 1.0 | 0.00 | 0.00 | 0.00 | 73 | 1011.5 |
| 20260502050403 | 50 | 0 | 0.0 | 1.0 | 0.00 | 0.00 | 0.00 | 74 | 1011.5 |
| 20260502045011 | 50 | 0 | 0.0 | 2.0 | 0.00 | 0.00 | 0.00 | 75 | 1011.6 |
| 20260502044852 | 50 | 0 | 0.0 | 2.0 | 0.00 | 0.00 | 0.00 | 75 | 1011.6 |
| 20260502043453 | 50 | 144 | 0.0 | 2.0 | 0.00 | 0.00 | 0.00 | 77 | 1011.8 |
| 20260502043339 | 50 | 144 | 0.0 | 2.0 | 0.00 | 0.00 | 0.00 | 77 | 1011.8 |
| 20260502042015 | 50 | 144 | 0.0 | 2.0 | 0.00 | 0.00 | 0.00 | 78 | 1011.9 |
| 20260502041823 | 50 | 144 | 0.0 | 2.0 | 0.00 | 0.00 | 0.00 | 78 | 1011.9 |
| 20260502040416 | 49 | 144 | 0.0 | 1.0 | 0.00 | 0.00 | 0.00 | 79 | 1011.9 |
| 20260502034933 | 49 | 0 | 0.0 | 1.0 | 0.00 | 0.00 | 0.00 | 80 | 1011.7 |
| 20260502033454 | 49 | 144 | 0.0 | 2.0 | 0.00 | 0.00 | 0.00 | 81 | 1011.6 |
| 20260502033343 | 49 | 144 | 0.0 | 2.0 | 0.00 | 0.00 | 0.00 | 81 | 1011.6 |
| 20260502031922 | 48 | 0 | 0.0 | 1.0 | 0.00 | 0.00 | 0.00 | 81 | 1011.9 |
| 20260502030458 | 48 | 0 | 0.0 | 1.0 | 0.00 | 0.00 | 0.00 | 81 | 1012.1 |
| 20260502030344 | 48 | 0 | 0.0 | 1.0 | 0.00 | 0.00 | 0.00 | 81 | 1012.1 |
| 20260502024937 | 48 | 144 | 0.0 | 1.0 | 0.00 | 0.00 | 0.00 | 81 | 1012.1 |
| 20260502024836 | 48 | 144 | 0.0 | 1.0 | 0.00 | 0.00 | 0.00 | 81 | 1012.1 |
| 20260502023512 | 48 | 0 | 0.0 | 1.0 | 0.00 | 0.00 | 0.00 | 80 | 1012.2 |
| 20260502023358 | 48 | 0 | 0.0 | 1.0 | 0.00 | 0.00 | 0.00 | 80 | 1012.2 |